Sigfox identifier Datetime Temperature Humidity SNR
003B84A6 2018-10-09 08:47:22 20.5 41 15.7
003B84A6 2018-10-09 07:40:28 20.5 41 15.5
003B84A6 2018-10-09 06:33:31 20.5 40 15.5
003B84A6 2018-10-09 05:26:38 20.5 40 16.6
003B84A6 2018-10-09 02:05:58 20.5 40 17.4
003B84A6 2018-10-09 00:59:08 20.5 39 17.4
003B84A6 2018-10-08 23:52:11 20.5 39 17.2
003B84A6 2018-10-08 22:45:19 20.5 39 17.3
003B84A6 2018-10-08 21:38:27 20.5 39 17.3
003B84A6 2018-10-08 20:31:36 20.5 39 18.1
003B84A6 2018-10-08 18:17:50 20.5 38 18.3
003B84A6 2018-10-08 17:10:59 20.5 38 18.4
003B84A6 2018-10-08 16:04:03 20.5 38 18.4
003B84A6 2018-10-08 14:57:13 20.5 37 18.4
003B84A6 2018-10-08 13:50:18 20.5 37 18.3
003B84A6 2018-10-08 12:43:27 20.5 37 18.5
003B84A6 2018-10-08 11:36:30 20.5 36 18.6
003B84A6 2018-10-08 10:29:38 20.4 36 18.5
003B84A6 2018-10-08 09:22:44 20.4 36 18.6
003B84A6 2018-10-08 08:15:50 20.4 37 18.6
003B84A6 2018-10-08 07:08:58 20.3 37 18.6
003B84A6 2018-10-08 06:02:04 20.4 37 18.6
003B84A6 2018-10-08 04:55:13 20.5 37 18.5
003B84A6 2018-10-08 03:48:22 20.5 38 18
003B84A6 2018-10-08 02:41:29 20.5 38 18.1
003B84A6 2018-10-08 01:34:39 20.5 38 18.2
003B84A6 2018-10-08 00:27:44 20.5 38 17.9
003B84A6 2018-10-07 23:20:50 20.5 39 18.1
003B84A6 2018-10-07 22:13:54 20.5 39 18
003B84A6 2018-10-07 21:07:00 20.6 39 18.2
003B84A6 2018-10-07 20:00:05 20.6 39 18.3
003B84A6 2018-10-07 18:53:09 20.5 39 18.3
003B84A6 2018-10-07 17:46:15 20.5 39 18.4
003B84A6 2018-10-07 16:39:20 20.6 39 18.3
003B84A6 2018-10-07 15:32:26 20.6 39 17.6
003B84A6 2018-10-07 14:25:36 20.6 39 17.6
003B84A6 2018-10-07 13:18:45 20.7 39 17.4
003B84A6 2018-10-07 12:11:52 20.6 39 17.5
003B84A6 2018-10-07 11:04:58 20.7 40 17.5
003B84A6 2018-10-07 09:58:04 20.7 40 17.7
003B84A6 2018-10-07 08:51:07 20.7 40 17.5
003B84A6 2018-10-07 07:44:12 20.7 40 17.5
003B84A6 2018-10-07 06:37:16 20.7 40 18.3
003B84A6 2018-10-07 05:30:19 20.7 40 18.4
003B84A6 2018-10-07 04:23:24 20.7 40 18.5
003B84A6 2018-10-07 03:16:27 20.7 40 18.6
003B84A6 2018-10-07 02:09:31 20.7 41 18.8
003B84A6 2018-10-07 01:02:34 20.7 41 18.9
003B84A6 2018-10-06 23:55:39 20.8 41 19.3
003B84A6 2018-10-06 22:48:44 20.8 41 19.5
003B84A6 2018-10-06 21:41:48 20.9 41 19.5
003B84A6 2018-10-06 20:34:55 20.9 41 19.2
003B84A6 2018-10-06 19:27:58 20.9 41 19.1
003B84A6 2018-10-06 18:21:03 21 41 19
003B84A6 2018-10-06 17:14:09 20.9 41 18.5
003B84A6 2018-10-06 16:07:15 21 41 18.6
003B84A6 2018-10-06 15:00:17 21 41 18.7
003B84A6 2018-10-06 13:53:21 21 41 18.6
003B84A6 2018-10-06 12:46:27 21 41 18.8
003B84A6 2018-10-06 11:39:31 21 41 19
003B84A6 2018-10-06 10:32:34 21 41 18.9
003B84A6 2018-10-06 09:25:38 21 41 19.1
003B84A6 2018-10-06 08:18:42 21 41 19.3
003B84A6 2018-10-06 07:11:47 21 42 19.5
003B84A6 2018-10-06 06:04:49 21 42 19.5
003B84A6 2018-10-06 04:57:52 21 42 19.8
003B84A6 2018-10-06 03:50:56 21 42 19.9
003B84A6 2018-10-06 02:44:02 21.1 43 19.1
003B84A6 2018-10-06 01:37:07 21.2 43 19
003B84A6 2018-10-06 00:30:13 21.2 43 18.8
003B84A6 2018-10-05 23:23:20 21.2 43 19
003B84A6 2018-10-05 22:16:26 21.2 43 18.6
003B84A6 2018-10-05 21:09:30 21.3 44 18.7
003B84A6 2018-10-05 20:02:35 21.4 44 17.3
003B84A6 2018-10-05 18:55:37 21.4 44 13.7
003B84A6 2018-10-05 17:48:41 21.6 45 11.9
003B84A6 2018-10-05 16:41:47 21.6 46 12.9
003B84A6 2018-10-05 15:34:45 21.6 48 8.2
003B84A6 2018-10-05 14:27:46 21.8 57 0